TimeCDT,TemperatureF,Dew PointF,Humidity,Sea Level PressureIn,VisibilityMPH,Wind Direction,Wind SpeedMPH,Gust SpeedMPH,PrecipitationIn,Events,Conditions,WindDirDegrees,DateUTC
12:15 AM,63.0,49.1,61,29.86,10.0,Calm,Calm,-,N/A,,Clear,0,2013-09-23 05:15:00
12:35 AM,63.5,48.9,59,29.86,10.0,East,3.5,-,N/A,,Clear,80,2013-09-23 05:35:00
12:55 AM,62.8,48.9,61,29.86,10.0,Calm,Calm,-,N/A,,Clear,0,2013-09-23 05:55:00
1:15 AM,61.2,49.3,65,29.86,10.0,NE,3.5,-,N/A,,Clear,50,2013-09-23 06:15:00
1:35 AM,61.5,49.3,64,29.86,10.0,ENE,3.5,-,N/A,,Clear,60,2013-09-23 06:35:00
1:55 AM,61.5,50.2,66,29.86,10.0,Calm,Calm,-,N/A,,Clear,0,2013-09-23 06:55:00
2:15 AM,58.1,50.9,77,29.86,10.0,Calm,Calm,-,N/A,,Clear,0,2013-09-23 07:15:00
2:35 AM,55.9,51.3,84,29.86,10.0,Calm,Calm,-,N/A,,Clear,0,2013-09-23 07:35:00
2:55 AM,57.0,51.3,81,29.86,10.0,Calm,Calm,-,N/A,,Clear,0,2013-09-23 07:55:00
3:15 AM,56.8,50.0,78,29.86,10.0,Calm,Calm,-,N/A,,Clear,0,2013-09-23 08:15:00
3:35 AM,59.2,50.4,73,29.86,10.0,ENE,3.5,-,N/A,,Clear,70,2013-09-23 08:35:00
3:55 AM,60.1,50.0,69,29.86,10.0,Calm,Calm,-,N/A,,Clear,0,2013-09-23 08:55:00
4:15 AM,59.2,50.2,72,29.86,10.0,Calm,Calm,-,N/A,,Clear,0,2013-09-23 09:15:00
4:35 AM,57.6,50.0,76,29.86,10.0,Calm,Calm,-,N/A,,Clear,0,2013-09-23 09:35:00
4:55 AM,58.1,50.2,75,29.86,10.0,East,3.5,-,N/A,,Clear,80,2013-09-23 09:55:00
5:15 AM,59.2,50.2,72,29.86,10.0,East,3.5,-,N/A,,Clear,80,2013-09-23 10:15:00
5:35 AM,59.0,50.4,73,29.86,10.0,East,3.5,-,N/A,,Clear,90,2013-09-23 10:35:00
5:55 AM,59.0,50.5,73,29.86,10.0,East,3.5,-,N/A,,Clear,100,2013-09-23 10:55:00
6:15 AM,59.0,50.9,74,29.86,10.0,East,3.5,-,N/A,,Clear,100,2013-09-23 11:15:00
6:35 AM,58.8,51.1,75,29.85,10.0,East,3.5,-,N/A,,Clear,100,2013-09-23 11:35:00
6:55 AM,58.3,50.9,76,29.86,10.0,East,3.5,-,N/A,,Clear,80,2013-09-23 11:55:00
7:15 AM,57.9,50.9,77,29.86,10.0,ENE,4.6,-,N/A,,Clear,70,2013-09-23 12:15:00
7:35 AM,58.1,51.3,78,29.87,10.0,East,3.5,-,N/A,,Clear,80,2013-09-23 12:35:00
7:55 AM,58.6,51.8,78,29.87,10.0,ENE,3.5,-,N/A,,Clear,70,2013-09-23 12:55:00
8:15 AM,60.6,52.7,75,29.87,10.0,Calm,Calm,-,N/A,,Clear,0,2013-09-23 13:15:00
8:35 AM,62.6,53.2,71,29.88,10.0,East,3.5,-,N/A,,Clear,100,2013-09-23 13:35:00
8:55 AM,64.6,53.2,67,29.88,10.0,East,3.5,-,N/A,,Clear,100,2013-09-23 13:55:00
9:15 AM,66.7,53.1,61,29.89,10.0,ESE,3.5,-,N/A,,Clear,120,2013-09-23 14:15:00
9:35 AM,68.2,52.7,58,29.89,10.0,SE,6.9,-,N/A,,Clear,130,2013-09-23 14:35:00
9:55 AM,69.8,53.2,56,29.89,10.0,SE,9.2,-,N/A,,Clear,140,2013-09-23 14:55:00
10:15 AM,71.6,53.1,52,29.89,10.0,SE,9.2,-,N/A,,Clear,140,2013-09-23 15:15:00
10:35 AM,72.3,52.7,50,29.89,10.0,SSE,10.4,-,N/A,,Clear,150,2013-09-23 15:35:00
10:55 AM,73.9,52.3,47,29.89,10.0,SE,9.2,-,N/A,,Clear,140,2013-09-23 15:55:00
11:15 AM,74.5,52.5,46,29.89,10.0,SSE,9.2,-,N/A,,Clear,160,2013-09-23 16:15:00
11:35 AM,75.4,53.1,46,29.89,10.0,South,3.5,-,N/A,,Clear,170,2013-09-23 16:35:00
11:55 AM,76.1,52.0,43,29.88,10.0,South,5.8,-,N/A,,Clear,180,2013-09-23 16:55:00
12:15 PM,77.7,52.9,42,29.88,10.0,SE,6.9,-,N/A,,Clear,140,2013-09-23 17:15:00
12:35 PM,78.3,52.0,40,29.87,10.0,South,8.1,-,N/A,,Clear,180,2013-09-23 17:35:00
12:55 PM,78.8,51.4,38,29.86,10.0,Calm,Calm,-,N/A,,Clear,0,2013-09-23 17:55:00
1:15 PM,80.1,50.9,36,29.85,10.0,SE,4.6,-,N/A,,Clear,130,2013-09-23 18:15:00
1:35 PM,80.4,49.1,33,29.85,10.0,SSW,3.5,-,N/A,,Clear,210,2013-09-23 18:35:00
1:55 PM,80.8,47.7,31,29.83,10.0,SE,3.5,-,N/A,,Clear,130,2013-09-23 18:55:00
2:15 PM,82.0,47.7,30,29.82,10.0,ESE,4.6,-,N/A,,Clear,120,2013-09-23 19:15:00
2:35 PM,82.0,46.0,28,29.81,10.0,East,3.5,-,N/A,,Clear,80,2013-09-23 19:35:00
2:55 PM,84.2,47.1,27,29.81,10.0,SSE,5.8,-,N/A,,Clear,150,2013-09-23 19:55:00
3:15 PM,83.5,46.6,27,29.80,10.0,East,3.5,-,N/A,,Clear,80,2013-09-23 20:15:00
3:35 PM,84.7,46.2,26,29.80,10.0,Calm,Calm,-,N/A,,Clear,0,2013-09-23 20:35:00
3:55 PM,84.7,45.7,25,29.79,10.0,South,6.9,-,N/A,,Clear,170,2013-09-23 20:55:00
4:15 PM,85.1,45.7,25,29.78,10.0,South,5.8,-,N/A,,Clear,180,2013-09-23 21:15:00
4:35 PM,85.8,47.1,26,29.78,10.0,ESE,5.8,-,N/A,,Clear,110,2013-09-23 21:35:00
4:55 PM,85.8,45.1,24,29.77,10.0,SSE,5.8,-,N/A,,Clear,150,2013-09-23 21:55:00
5:15 PM,85.6,45.0,24,29.77,10.0,South,5.8,-,N/A,,Clear,170,2013-09-23 22:15:00
5:35 PM,85.5,45.1,24,29.77,10.0,SSE,10.4,-,N/A,,Clear,150,2013-09-23 22:35:00
5:55 PM,85.1,45.0,25,29.78,10.0,South,9.2,-,N/A,,Clear,180,2013-09-23 22:55:00
6:15 PM,84.7,46.0,26,29.78,10.0,SSE,8.1,-,N/A,,Clear,150,2013-09-23 23:15:00
6:35 PM,84.2,46.6,27,29.78,10.0,South,8.1,-,N/A,,Clear,180,2013-09-23 23:35:00
6:55 PM,82.8,48.0,30,29.78,10.0,South,5.8,-,N/A,,Clear,170,2013-09-23 23:55:00
7:15 PM,81.3,49.8,33,29.79,10.0,South,4.6,-,N/A,,Clear,170,2013-09-24 00:15:00
7:35 PM,78.1,52.5,41,29.79,10.0,SSW,3.5,-,N/A,,Clear,200,2013-09-24 00:35:00
7:55 PM,76.3,53.6,45,29.80,10.0,Calm,Calm,-,N/A,,Clear,0,2013-09-24 00:55:00
8:15 PM,75.0,53.1,46,29.80,10.0,Calm,Calm,-,N/A,,Clear,0,2013-09-24 01:15:00
8:43 PM,73.4,53.6,50,29.81,10.0,ESE,3.5,-,N/A,,Clear,120,2013-09-24 01:43:00
8:55 PM,72.1,54.9,54,29.82,10.0,Calm,Calm,-,N/A,,Clear,0,2013-09-24 01:55:00
9:15 PM,72.3,54.1,53,29.83,10.0,Calm,Calm,-,N/A,,Clear,0,2013-09-24 02:15:00
9:35 PM,72.5,54.3,53,29.84,10.0,East,4.6,-,N/A,,Clear,80,2013-09-24 02:35:00
9:55 PM,72.0,54.7,54,29.85,10.0,East,3.5,-,N/A,,Clear,80,2013-09-24 02:55:00
10:15 PM,72.0,55.2,55,29.85,10.0,Calm,Calm,-,N/A,,Clear,0,2013-09-24 03:15:00
10:35 PM,72.7,54.7,53,29.86,10.0,ESE,4.6,-,N/A,,Clear,110,2013-09-24 03:35:00
10:55 PM,72.5,55.2,54,29.86,10.0,ESE,3.5,-,N/A,,Clear,110,2013-09-24 03:55:00
11:15 PM,71.2,55.6,58,29.87,10.0,East,3.5,-,N/A,,Clear,100,2013-09-24 04:15:00
11:35 PM,70.7,55.8,59,29.86,10.0,ESE,3.5,-,N/A,,Clear,110,2013-09-24 04:35:00
11:55 PM,71.6,56.7,59,29.86,10.0,ESE,4.6,-,N/A,,Clear,120,2013-09-24 04:55:00